Regional Weather Roundup
Issued by NWS

Home | Current Version | Previous Version | Graphics & Text | Print | Product List | Glossary On
Versions: 1 2 3 4 5 6 7 8 9 10 11 12 13 14 15 16 17 18 19 20 21 22 23 24 25 26 27 28 29 30 31 32 33 34 35 36 37 38 39 40 41 42 43 44 45 46 47 48 49 50
000
ASUS45 KBOU 072207
RWRCO

WEATHER ROUNDUP FOR COLORADO
NATIONAL WEATHER SERVICE DENVER/BOULDER CO
300 PM MST WED DEC 07 2016

NOTE: "FAIR" INDICATES FEW OR NO CLOUDS BELOW 12000 FEET WITH NO
SIGNIFICANT WEATHER AND/OR OBSTRUCTIONS TO VISIBILITY.

COZ001>005-013-030-031-072300-
...NORTHWEST COLORADO...

CITY           SKY/WX    TMP DP  RH WIND       PRES   REMARKS
CRAIG          FAIR      17   1  49 NW6       30.19R WCI   9
HAYDEN         CLOUDY    16   0  48 W10       30.16R WCI   3
MEEKER         PTSUNNY   16  10  77 SE5       30.16R WCI   9
MOUNT WERNER   NOT AVBL
STEAMBOAT SPGS CLOUDY    15   0  52 SW8       30.14R WCI   4
WALDEN           N/A      7   0  72 N12       30.05R WCI  -9
$$

COZ006>008-011-072300-
...WEST CENTRAL VALLEYS...

CITY           SKY/WX    TMP DP  RH WIND       PRES   REMARKS
GRAND JUNCTION FAIR      31   8  38 NW7       30.17R WCI  24
MONTROSE       FAIR      29   4  34 NW7       30.15R WCI  22
EAGLE          CLOUDY    25   1  36 W10       30.13R WCI  15
RIFLE          PTSUNNY   28   6  39 NW10      30.16R WCI  19
DELTA          FAIR      35  -1  21 NW9G20    30.15R WCI  28
NUCLA          FAIR      32   1  27 N8        30.15R WCI  25
$$

COZ017>023-064>068-072300-
...SOUTHWEST COLORADO...

CITY           SKY/WX    TMP DP  RH WIND       PRES   REMARKS
DURANGO        FAIR      32  -4  21 W24       30.01S WCI  19
CORTEZ         FAIR      34   0  23 N9G18     30.09R WCI  27
PAGOSA SPRINGS FAIR      31  -4  21 SW14G23   29.99R WCI  21
TELLURIDE      FAIR      18  -4  36 W8        30.03R WCI   8
WOLF CREEK PAS FAIR      10   0  61 SW20G30   29.93R WCI  -8
$$

COZ009-010-012-014-032>034-037-058>063-072300-
...CENTRAL COLORADO...

CITY           SKY/WX    TMP DP  RH WIND       PRES   REMARKS
ASPEN          PTSUNNY   16   2  54 N12       30.04R WCI   3
BUENA VISTA    FAIR      22  -8  26 W20       29.99R WCI   7
COPPER MTN     NOT AVBL
BERTHOUD PASS  SNOW      -9 -22  54 MISG      29.78R VSB 1/4
COTTONWOOD PAS FAIR      14  -6  41 W14G29    29.92R WCI  -1
GUNNISON       FLURRIES  21   2  43 SW10      30.04R WCI  10
KREMMLING      CLOUDY    19   0  42 N12       30.09R WCI   7
LEADVILLE      LGT SNOW   5  -4  66 NW12G24   29.92R VSB 1   WCI -11
MONARCH PASS   TSTM       0  -4  85 W32G48    29.94R WCI -27
SALIDA         FAIR      26  -8  22 W14G25    30.08R WCI  15
SUNLIGHT       LGT SNOW   3   0  85 W6        29.99R VSB 3/4 WCI  -8
WILKERSON PASS PTSUNNY    3  -8  60 NW8       29.89R WCI -10
$$

COZ069>075-072300-
...SAN LUIS VALLEY/SANGRE DE CRISTO MOUNTAINS...

CITY           SKY/WX    TMP DP  RH WIND       PRES   REMARKS
ALAMOSA        FAIR      30   3  31 N9        29.97R WCI  22
LA VETA PASS   FAIR       7   1  78 SW3       29.91R
SAGUACHE       FAIR      27  -6  24 NW20G30   29.98R WCI  13
$$

COZ035-036-038>040-072300-
...NORTHERN COLORADO FRONT RANGE...

CITY           SKY/WX    TMP DP  RH WIND       PRES   REMARKS
DENVER INTL AP FLURRIES  10   3  73 N8        30.22R WCI  -2
DMNS CITY PARK   N/A     10   5  79 N7G13     30.24R WCI  -1
AURORA         NOT AVBL
FRONT RANGE AP NOT AVBL
ERIE MUNI ARPT LGT SNOW  11   6  78 NE5       30.26R WCI   3
BOULDER MUN AP CLOUDY    12   5  73 CALM      30.24R
CENTENNIAL     CLOUDY     9   3  77 NE6       30.18R WCI  -1
BROOMFIELD     LGT SNOW  12   5  73 NE6       30.22R WCI   3
FORT COLLINS   PTSUNNY   12   3  67 CALM      30.27R
LONGMONT       CLOUDY    15   5  66 NE3       30.28R
$$

COZ041-046-047-076>085-087-088-072300-
...PIKES PEAK/PALMER DIVIDE AND SOUTHERN FOOTHILLS...

CITY           SKY/WX    TMP DP  RH WIND       PRES   REMARKS
COLO. SPRINGS  LGT SNOW  15   7  70 NE12      30.13R VSB 1   WCI   2
A. F. ACADEMY  MIX PCPN  12   5  73 NW10      30.10R WCI  -1
SCHRIEVER AFB  NOT AVBL
ELLICOTT       LGT RAIN N/A N/A N/A MISG        N/A
FALCON         CLOUDY    11   5  75 NE9       30.10R WCI  -2
FORT CARSON    CLOUDY    19   9  65 NE9       30.13R WCI   7
LIMON          FLURRIES  10   6  84 N12       30.21R WCI  -5
MONUMENT HILL  LGT SNOW   9   1  72 N3        30.10R
TRINIDAD       LGT SNOW  19  12  74 E9        30.14R WCI   8
$$

COZ042>045-048>051-090-091-072300-
...NORTHEAST COLORADO...

CITY           SKY/WX    TMP DP  RH WIND       PRES   REMARKS
GREELEY ARPT   FAIR      11   1  64 E5        30.30R WCI   3
AKRON          FLURRIES  10   3  73 N13       30.27R WCI  -5
BURLINGTON     CLOUDY    16   7  67 N14       30.28R WCI   2
WRAY           NOT AVBL
STERLING       FAIR      14   5  67 N13       30.31R WCI   0
HOLYOKE        FAIR      19   9  63 NW9       30.33R WCI   9
FORT MORGAN    CLOUDY    13   4  65 N9        30.30R WCI   1
$$

COZ086-089-092>099-072300-
...SOUTHEAST COLORADO...

CITY           SKY/WX    TMP DP  RH WIND       PRES   REMARKS
PUEBLO         PTSUNNY   26  10  50 E9        30.18R WCI  17
LA JUNTA       CLOUDY    21  13  71 E10       30.25R WCI  10
LAMAR          LGT SNOW  20  12  71 NE13      30.27R WCI   7
SPRINGFIELD      N/A     18  12  77 NE13      30.20R WCI   5
$$



USA.gov is the U.S. government's official web portal to all federal, state and local government web resources and services.